Home > Weather > Târgu Mureş > Past weeks

Flag for Romania Weather for the Past 2 Weeks in Târgu Mureş, Romania

Now
50 °F

Passing clouds.


Feels Like: 47 °F
Forecast: 33 / 42 °F
Wind: 7 mph from Southeast

Location: Tirgu Mures Airport

Current Time: Feb 10, 2016 at 1:18:31 PM

Latest Report: Feb 10, 2016 at 12:30 PM


Visibility: N/A

Pressure: 29.45 "Hg

Humidity: 67%

Dew point: 39 °F

Location of Târgu MureşLocation

Historic Weather in Târgu Mureş — Graph

°F

Târgu Mureş Temperature Yesterday

Maximum temperature yesterday: 59 °F (at 3:00 PM)
Minimum temperature yesterday: 28 °F (at 1:00 AM)
Average temperature yesterday: 40 °F

High & Low Weather Summary for the Past Weeks

 TemperatureHumidityPressure
High59 °F (Feb 9, 3:00 PM)100% (Jan 27, 10:00 PM)30.45 "Hg (Jan 27, 10:00 PM)
Low19 °F (Feb 7, 6:00 AM)46% (Feb 7, 4:00 PM)29.47 "Hg (Feb 10, 11:30 AM)
Average36 °F87%30.15 "Hg
* Reported Jan 26 12:00 Noon — Feb 10 12:00 Noon, Târgu Mureş, Weather by CustomWeather, © 2016

Note: Actual official high and low records may vary slightly from our data, if they occured in-between our weather recording intervals... More about our weather records

Advertising

Târgu Mureş Weather History for the Previous 24 Hours

 ConditionsComfort  
Time TempWeatherWind HumidityBarometerVisibility
12:00 PM
Wed, Feb 10
50 °FPassing clouds.6 mph67%29.47 "HgN/A
11:30 AM48 °FPassing clouds.3 mph71%29.47 "HgN/A
11:00 AM46 °FPassing clouds.6 mph76%29.50 "HgN/A
10:30 AM45 °FPassing clouds.6 mph81%29.53 "HgN/A
10:00 AM45 °FPassing clouds.6 mph76%29.53 "HgN/A
9:30 AM43 °FSunny.13 mph81%29.53 "Hg10 mi
9:00 AM41 °FSunny.9 mph81%29.56 "Hg10 mi
8:30 AM39 °FSunny.7 mph87%29.56 "Hg10 mi
8:00 AM37 °FPassing clouds.8 mph87%29.59 "HgN/A
7:30 AM37 °FClear.10 mph87%29.59 "Hg10 mi
7:00 AM36 °FClear.10 mph87%29.59 "Hg10 mi
6:30 AM36 °FClear.6 mph87%29.62 "Hg10 mi
6:00 AM34 °FClear.6 mph93%29.62 "Hg10 mi
5:30 AM36 °FClear.7 mph93%29.65 "Hg10 mi
5:00 AM36 °FClear.6 mph87%29.65 "Hg10 mi
4:00 AM34 °FClear.6 mph93%29.68 "Hg5 mi
3:00 AM34 °FClear.7 mph93%29.71 "Hg4 mi
2:00 AM34 °FFog.8 mph93%29.74 "Hg3 mi
1:00 AM34 °FFog.5 mph93%29.77 "Hg3 mi
12:00 AM34 °FFog.7 mph93%29.83 "Hg3 mi
11:00 PM
Tue, Feb 9
36 °FClear.6 mph93%29.83 "Hg4 mi
10:00 PM37 °FClear.9 mph93%29.86 "Hg4 mi
9:00 PM39 °FClear.7 mph87%29.89 "Hg4 mi
8:30 PM39 °FClear.8 mph87%29.89 "Hg4 mi
8:00 PM37 °FClear.7 mph93%29.92 "Hg5 mi
7:30 PM39 °FClear.7 mph87%29.92 "Hg10 mi
7:00 PM39 °FClear.No wind87%29.92 "Hg10 mi
6:00 PM45 °FPassing clouds.3 mph81%29.92 "HgN/A
5:30 PM52 °FPassing clouds.No wind67%29.92 "HgN/A
5:00 PM55 °FPassing clouds.1 mph59%29.92 "HgN/A
4:30 PM57 °FPassing clouds.3 mph55%29.92 "HgN/A
4:00 PM57 °FPassing clouds.6 mph55%29.95 "HgN/A
3:30 PM59 °FPassing clouds.1 mph51%29.95 "HgN/A
3:00 PM59 °FPassing clouds.3 mph51%29.95 "HgN/A
2:30 PM55 °FPassing clouds.No wind55%29.98 "HgN/A
2:00 PM54 °FPassing clouds.5 mph58%29.98 "HgN/A
1:30 PM54 °FPassing clouds.5 mph58%29.98 "HgN/A
Weather by CustomWeather, © 2016

See weather overviewHow to use our weather pages